| time (UTC) | temp F | wind direction | speed MPH | gust MPH | rain 1hr in | rain 24hr in | rain mn in | humidity % | barometer mb |
| 20260505204843 | 64 | 214 | 1.0 | 16.0 | 0.00 | 0.00 | 0.00 | 56 | 1007.7 |
| 20260505204343 | 65 | 74 | 3.0 | 16.0 | 0.00 | 0.00 | 0.00 | 55 | 1007.5 |
| 20260505203844 | 65 | 76 | 2.0 | 9.0 | 0.00 | 0.00 | 0.00 | 54 | 1007.6 |
| 20260505203343 | 65 | 262 | 6.0 | 8.0 | 0.00 | 0.00 | 0.00 | 54 | 1007.9 |
| 20260505202843 | 65 | 102 | 2.0 | 17.0 | 0.00 | 0.00 | 0.00 | 54 | 1007.5 |
| 20260505202626 | 65 | 119 | 7.0 | 17.0 | 0.00 | 0.00 | 0.00 | 53 | 1007.4 |
| 20260505201842 | 65 | 98 | 1.0 | 11.0 | 0.00 | 0.00 | 0.00 | 53 | 1007.5 |
| 20260505201628 | 66 | 108 | 1.0 | 15.0 | 0.00 | 0.00 | 0.00 | 52 | 1007.3 |
| 20260505200840 | 66 | 125 | 6.0 | 15.0 | 0.00 | 0.00 | 0.00 | 52 | 1007.6 |
| 20260505200341 | 66 | 97 | 9.0 | 14.0 | 0.00 | 0.00 | 0.00 | 52 | 1007.6 |
| 20260505195841 | 66 | 290 | 4.0 | 14.0 | 0.00 | 0.00 | 0.00 | 51 | 1007.5 |
| 20260505195341 | 66 | 67 | 0.0 | 8.0 | 0.00 | 0.00 | 0.00 | 52 | 1007.6 |
| 20260505194840 | 66 | 88 | 4.0 | 8.0 | 0.00 | 0.00 | 0.00 | 52 | 1007.6 |
| 20260505194340 | 66 | 69 | 0.0 | 8.0 | 0.00 | 0.00 | 0.00 | 52 | 1007.5 |
| 20260505193840 | 67 | 89 | 5.0 | 11.0 | 0.00 | 0.00 | 0.00 | 52 | 1007.6 |
| 20260505193341 | 67 | 71 | 6.0 | 13.0 | 0.00 | 0.00 | 0.00 | 51 | 1007.7 |
| 20260505192840 | 67 | 295 | 0.0 | 21.0 | 0.00 | 0.00 | 0.00 | 51 | 1007.7 |
| 20260505192341 | 67 | 244 | 2.0 | 21.0 | 0.00 | 0.00 | 0.00 | 51 | 1007.7 |
| 20260505191841 | 67 | 113 | 0.0 | 14.0 | 0.00 | 0.00 | 0.00 | 51 | 1007.6 |
| 20260505191340 | 67 | 83 | 4.0 | 14.0 | 0.00 | 0.00 | 0.00 | 51 | 1007.7 |
| 20260505191117 | 68 | 7 | 0.0 | 11.0 | 0.00 | 0.00 | 0.00 | 50 | 1007.7 |
| 20260505190624 | 68 | 10 | 6.0 | 11.0 | 0.00 | 0.00 | 0.00 | 50 | 1007.9 |
| 20260505185841 | 68 | 327 | 6.0 | 19.0 | 0.00 | 0.00 | 0.00 | 50 | 1007.7 |
| 20260505185341 | 69 | 94 | 2.0 | 19.0 | 0.00 | 0.00 | 0.00 | 50 | 1007.6 |
| 20260505184841 | 69 | 64 | 4.0 | 13.0 | 0.00 | 0.00 | 0.00 | 51 | 1008.0 |
| 20260505184426 | 69 | 99 | 3.0 | 8.0 | 0.00 | 0.00 | 0.00 | 50 | 1007.7 |
| 20260505184348 | 69 | 89 | 3.0 | 9.0 | 0.00 | 0.00 | 0.00 | 50 | 1007.5 |
| 20260505183341 | 69 | 27 | 0.0 | 10.0 | 0.00 | 0.00 | 0.00 | 50 | 1007.7 |
| 20260505182840 | 70 | 93 | 2.0 | 15.0 | 0.00 | 0.00 | 0.00 | 49 | 1007.5 |
| 20260505182341 | 70 | 131 | 2.0 | 15.0 | 0.00 | 0.00 | 0.00 | 49 | 1007.3 |
| 20260505181840 | 70 | 179 | 2.0 | 8.0 | 0.00 | 0.00 | 0.00 | 50 | 1007.3 |
| 20260505181645 | 70 | 135 | 1.0 | 15.0 | 0.00 | 0.00 | 0.00 | 49 | 1007.3 |
| 20260505181119 | 71 | 355 | 1.0 | 21.0 | 0.00 | 0.00 | 0.00 | 48 | 1007.4 |
| 20260505180345 | 71 | 42 | 5.0 | 21.0 | 0.00 | 0.00 | 0.00 | 49 | 1007.4 |
| 20260505175842 | 71 | 126 | 4.0 | 14.0 | 0.00 | 0.00 | 0.00 | 49 | 1007.4 |
| 20260505175343 | 71 | 102 | 4.0 | 13.0 | 0.00 | 0.00 | 0.00 | 49 | 1007.3 |
| 20260505174840 | 71 | 278 | 1.0 | 13.0 | 0.00 | 0.00 | 0.00 | 50 | 1007.5 |
| 20260505174353 | 72 | 69 | 4.0 | 13.0 | 0.00 | 0.00 | 0.00 | 49 | 1007.3 |
| 20260505173841 | 72 | 21 | 5.0 | 13.0 | 0.00 | 0.00 | 0.00 | 49 | 1007.5 |
| 20260505173343 | 72 | 283 | 1.0 | 8.0 | 0.00 | 0.00 | 0.00 | 49 | 1007.4 |
| 20260505173117 | 73 | 81 | 3.0 | 7.0 | 0.00 | 0.00 | 0.00 | 48 | 1007.4 |
| 20260505172344 | 73 | 69 | 0.0 | 8.0 | 0.00 | 0.00 | 0.00 | 47 | 1007.3 |
| 20260505171841 | 73 | 312 | 0.0 | 11.0 | 0.00 | 0.00 | 0.00 | 47 | 1007.3 |
| 20260505171348 | 74 | 109 | 4.0 | 11.0 | 0.00 | 0.00 | 0.00 | 46 | 1007.4 |
| 20260505170840 | 74 | 32 | 1.0 | 13.0 | 0.00 | 0.00 | 0.00 | 46 | 1007.3 |
| 20260505170356 | 74 | 84 | 2.0 | 15.0 | 0.00 | 0.00 | 0.00 | 46 | 1007.4 |
| 20260505165841 | 74 | 70 | 6.0 | 15.0 | 0.00 | 0.00 | 0.00 | 46 | 1007.2 |
| 20260505165340 | 74 | 139 | 4.0 | 13.0 | 0.00 | 0.00 | 0.00 | 45 | 1007.2 |
| 20260505164841 | 74 | 37 | 0.0 | 21.0 | 0.00 | 0.00 | 0.00 | 45 | 1007.3 |
| 20260505164341 | 74 | 51 | 12.0 | 21.0 | 0.00 | 0.00 | 0.00 | 45 | 1007.2 |
| 20260505163840 | 75 | 85 | 0.0 | 18.0 | 0.00 | 0.00 | 0.00 | 44 | 1007.2 |
| 20260505163342 | 75 | 74 | 4.0 | 18.0 | 0.00 | 0.00 | 0.00 | 45 | 1007.2 |
| 20260505162840 | 75 | 103 | 8.0 | 18.0 | 0.00 | 0.00 | 0.00 | 45 | 1007.4 |
| 20260505162340 | 76 | 27 | 3.0 | 11.0 | 0.00 | 0.00 | 0.00 | 44 | 1007.5 |
| 20260505162117 | 76 | 155 | 3.0 | 17.0 | 0.00 | 0.00 | 0.00 | 44 | 1007.3 |
| 20260505161341 | 75 | 69 | 5.0 | 17.0 | 0.00 | 0.00 | 0.00 | 44 | 1007.5 |
| 20260505160840 | 76 | 79 | 0.0 | 18.0 | 0.00 | 0.00 | 0.00 | 44 | 1007.3 |
| 20260505160340 | 75 | 111 | 1.0 | 18.0 | 0.00 | 0.00 | 0.00 | 44 | 1007.5 |
| 20260505153342 | 74 | 296 | 0.0 | 17.0 | 0.00 | 0.00 | 0.00 | 44 | 1007.7 |
| 20260505152843 | 74 | 19 | 2.0 | 18.0 | 0.00 | 0.00 | 0.00 | 44 | 1007.7 |
| 20260505152343 | 74 | 333 | 0.0 | 21.0 | 0.00 | 0.00 | 0.00 | 43 | 1007.6 |
| 20260505151842 | 74 | 302 | 5.0 | 21.0 | 0.00 | 0.00 | 0.00 | 41 | 1007.7 |
| 20260505151341 | 74 | 82 | 9.0 | 17.0 | 0.00 | 0.00 | 0.00 | 40 | 1007.9 |
| 20260505150839 | 75 | 50 | 3.0 | 22.0 | 0.00 | 0.00 | 0.00 | 37 | 1008.0 |
| 20260505150350 | 76 | 20 | 5.0 | 24.0 | 0.00 | 0.00 | 0.00 | 34 | 1007.9 |
| 20260505140602 | 78 | 67 | 9.0 | 15.0 | 0.00 | 0.00 | 0.00 | 34 | 1008.2 |
| 20260505124805 | 75 | 2 | 1.0 | 21.0 | 0.00 | 0.00 | 0.00 | 36 | 1009.0 |
| 20260505124305 | 74 | 36 | 0.0 | 21.0 | 0.00 | 0.00 | 0.00 | 35 | 1009.0 |
| 20260505124054 | 74 | 89 | 9.0 | 17.0 | 0.00 | 0.00 | 0.00 | 35 | 1008.9 |
| 20260505123301 | 74 | 149 | 5.0 | 15.0 | 0.00 | 0.00 | 0.00 | 36 | 1009.1 |
| 20260505122803 | 74 | 67 | 6.0 | 15.0 | 0.00 | 0.00 | 0.00 | 34 | 1009.2 |
| 20260505122305 | 74 | 196 | 2.0 | 22.0 | 0.00 | 0.00 | 0.00 | 34 | 1009.2 |
| 20260505121756 | 74 | 50 | 1.0 | 22.0 | 0.00 | 0.00 | 0.00 | 35 | 1009.2 |
| 20260505121256 | 75 | 96 | 10.0 | 17.0 | 0.00 | 0.00 | 0.00 | 34 | 1009.2 |
| 20260505120756 | 75 | 86 | 3.0 | 18.0 | 0.00 | 0.00 | 0.00 | 34 | 1009.2 |
| 20260505120256 | 75 | 72 | 5.0 | 19.0 | 0.00 | 0.00 | 0.00 | 34 | 1009.2 |
| 20260505120031 | 74 | 105 | 8.0 | 19.0 | 0.00 | 0.00 | 0.00 | 35 | 1009.1 |
| 20260505115255 | 74 | 59 | 3.0 | 19.0 | 0.00 | 0.00 | 0.00 | 35 | 1009.3 |
| 20260505114756 | 75 | 75 | 7.0 | 22.0 | 0.00 | 0.00 | 0.00 | 35 | 1009.4 |
| 20260505114256 | 75 | 109 | 6.0 | 22.0 | 0.00 | 0.00 | 0.00 | 34 | 1009.1 |
| 20260505113759 | 76 | 100 | 3.0 | 15.0 | 0.00 | 0.00 | 0.00 | 34 | 1009.3 |
| 20260505113256 | 77 | 89 | 5.0 | 18.0 | 0.00 | 0.00 | 0.00 | 33 | 1009.3 |
| 20260505112753 | 77 | 109 | 0.0 | 18.0 | 0.00 | 0.00 | 0.00 | 34 | 1009.2 |
| 20260505112253 | 77 | 124 | 5.0 | 16.0 | 0.00 | 0.00 | 0.00 | 34 | 1009.3 |
| 20260505112030 | 76 | 69 | 12.0 | 15.0 | 0.00 | 0.00 | 0.00 | 33 | 1009.1 |
| 20260505111251 | 77 | 137 | 0.0 | 14.0 | 0.00 | 0.00 | 0.00 | 33 | 1009.2 |
| 20260505110753 | 77 | 176 | 6.0 | 14.0 | 0.00 | 0.00 | 0.00 | 32 | 1009.3 |
| 20260505110253 | 78 | 44 | 6.0 | 18.0 | 0.00 | 0.00 | 0.00 | 32 | 1009.3 |
| 20260505102031 | 75 | 89 | 12.0 | 18.0 | 0.00 | 0.00 | 0.00 | 33 | 1009.7 |
| 20260505101252 | 75 | 95 | 4.0 | 18.0 | 0.00 | 0.00 | 0.00 | 33 | 1009.8 |
| 20260505100752 | 75 | 106 | 4.0 | 14.0 | 0.00 | 0.00 | 0.00 | 33 | 1009.7 |
| 20260505100556 | 74 | 162 | 1.0 | 18.0 | 0.00 | 0.00 | 0.00 | 34 | 1009.9 |
| 20260505095752 | 73 | 94 | 8.0 | 21.0 | 0.00 | 0.00 | 0.00 | 34 | 1010.0 |
| 20260505095252 | 72 | 39 | 6.0 | 21.0 | 0.00 | 0.00 | 0.00 | 34 | 1010.2 |
| 20260505094752 | 72 | 52 | 6.0 | 24.0 | 0.00 | 0.00 | 0.00 | 34 | 1010.2 |
| 20260505094256 | 72 | 60 | 3.0 | 24.0 | 0.00 | 0.00 | 0.00 | 35 | 1010.1 |
| 20260505093754 | 73 | 70 | 1.0 | 16.0 | 0.00 | 0.00 | 0.00 | 34 | 1010.1 |
| 20260505093254 | 73 | 65 | 14.0 | 16.0 | 0.00 | 0.00 | 0.00 | 33 | 1010.2 |
| 20260505092755 | 74 | 139 | 3.0 | 18.0 | 0.00 | 0.00 | 0.00 | 33 | 1010.2 |
| 20260505092255 | 74 | 48 | 2.0 | 24.0 | 0.00 | 0.00 | 0.00 | 34 | 1010.1 |
| 20260505091756 | 73 | 145 | 2.0 | 24.0 | 0.00 | 0.00 | 0.00 | 35 | 1010.0 |
| 20260505091255 | 74 | 101 | 6.0 | 19.0 | 0.00 | 0.00 | 0.00 | 34 | 1009.9 |
| 20260505091033 | 73 | 202 | 2.0 | 18.0 | 0.00 | 0.00 | 0.00 | 35 | 1010.1 |
| 20260505090255 | 73 | 306 | 2.0 | 11.0 | 0.00 | 0.00 | 0.00 | 35 | 1010.2 |
| 20260505090030 | 73 | 224 | 2.0 | 17.0 | 0.00 | 0.00 | 0.00 | 35 | 1010.3 |
| 20260505085252 | 72 | 56 | 15.0 | 17.0 | 0.00 | 0.00 | 0.00 | 35 | 1010.4 |
| 20260505084753 | 71 | 39 | 2.0 | 14.0 | 0.00 | 0.00 | 0.00 | 36 | 1010.4 |
| 20260505084528 | 72 | 63 | 6.0 | 29.0 | 0.00 | 0.00 | 0.00 | 35 | 1010.5 |
| 20260505083740 | 72 | 53 | 1.0 | 29.0 | 0.00 | 0.00 | 0.00 | 36 | 1010.3 |
| 20260505083240 | 72 | 279 | 4.0 | 31.0 | 0.00 | 0.00 | 0.00 | 35 | 1010.5 |
| 20260505082739 | 72 | 65 | 5.0 | 31.0 | 0.00 | 0.00 | 0.00 | 35 | 1010.3 |
| 20260505082240 | 73 | 105 | 4.0 | 18.0 | 0.00 | 0.00 | 0.00 | 35 | 1010.5 |
| 20260505081740 | 72 | 230 | 1.0 | 14.0 | 0.00 | 0.00 | 0.00 | 36 | 1010.2 |
| 20260505081240 | 72 | 221 | 1.0 | 21.0 | 0.00 | 0.00 | 0.00 | 38 | 1010.0 |
| 20260505080739 | 71 | 81 | 12.0 | 21.0 | 0.00 | 0.00 | 0.00 | 36 | 1010.2 |
| 20260505080240 | 71 | 70 | 5.0 | 16.0 | 0.00 | 0.00 | 0.00 | 37 | 1010.0 |
| 20260505075740 | 71 | 27 | 6.0 | 19.0 | 0.00 | 0.00 | 0.00 | 40 | 1010.2 |
| 20260505075239 | 71 | 245 | 1.0 | 19.0 | 0.00 | 0.00 | 0.00 | 39 | 1010.1 |
| 20260505074821 | 72 | 100 | 4.0 | 11.0 | 0.00 | 0.00 | 0.00 | 41 | 1010.0 |
| 20260505074817 | 70 | 41 | 4.0 | 13.0 | 0.00 | 0.00 | 0.00 | 42 | 1010.1 |
| 20260505074804 | 71 | 100 | 4.0 | 15.0 | 0.00 | 0.00 | 0.00 | 40 | 1010.1 |
| 20260505073240 | 70 | 93 | 1.0 | 13.0 | 0.00 | 0.00 | 0.00 | 43 | 1010.1 |
| 20260505073018 | 70 | 63 | 6.0 | 15.0 | 0.00 | 0.00 | 0.00 | 43 | 1010.0 |
| 20260505072241 | 69 | 111 | 7.0 | 15.0 | 0.00 | 0.00 | 0.00 | 44 | 1010.1 |
| 20260505071740 | 70 | 145 | 9.0 | 17.0 | 0.00 | 0.00 | 0.00 | 44 | 1010.1 |
| 20260505071240 | 69 | 265 | 4.0 | 17.0 | 0.00 | 0.00 | 0.00 | 45 | 1010.4 |
| 20260505070739 | 69 | 3 | 3.0 | 18.0 | 0.00 | 0.00 | 0.00 | 44 | 1010.3 |
| 20260505070240 | 69 | 116 | 2.0 | 19.0 | 0.00 | 0.00 | 0.00 | 44 | 1010.3 |
| 20260505065741 | 69 | 56 | 11.0 | 19.0 | 0.00 | 0.00 | 0.00 | 46 | 1010.2 |
| 20260505065241 | 69 | 227 | 4.0 | 14.0 | 0.00 | 0.00 | 0.00 | 46 | 1010.2 |
| 20260505064740 | 69 | 191 | 2.0 | 14.0 | 0.00 | 0.00 | 0.00 | 46 | 1010.2 |
| 20260505064527 | 69 | 103 | 3.0 | 11.0 | 0.00 | 0.00 | 0.00 | 46 | 1010.1 |
| 20260505063742 | 68 | 89 | 1.0 | 17.0 | 0.00 | 0.00 | 0.00 | 49 | 1010.2 |
| 20260505063243 | 68 | 63 | 2.0 | 17.0 | 0.00 | 0.00 | 0.00 | 49 | 1009.9 |
| 20260505062743 | 68 | 323 | 2.0 | 10.0 | 0.00 | 0.00 | 0.00 | 47 | 1010.2 |
| 20260505062243 | 68 | 67 | 3.0 | 10.0 | 0.00 | 0.00 | 0.00 | 47 | 1010.2 |
| 20260505061740 | 68 | 298 | 2.0 | 10.0 | 0.00 | 0.00 | 0.00 | 47 | 1010.3 |
| 20260505061240 | 67 | 327 | 3.0 | 10.0 | 0.00 | 0.00 | 0.00 | 47 | 1010.5 |
| 20260505060739 | 67 | 48 | 2.0 | 10.0 | 0.00 | 0.00 | 0.00 | 47 | 1010.5 |
| 20260505060239 | 66 | 81 | 4.0 | 8.0 | 0.00 | 0.00 | 0.00 | 48 | 1010.7 |
| 20260505055737 | 63 | 324 | 1.0 | 8.0 | 0.00 | 0.00 | 0.00 | 52 | 1010.9 |
| 20260505055232 | 58 | 325 | 3.0 | 3.0 | 0.00 | 0.00 | 0.00 | 64 | 1010.9 |
| 20260505054728 | 57 | 104 | 1.0 | 6.0 | 0.00 | 0.00 | 0.00 | 67 | 1011.0 |
| 20260505054225 | 55 | 342 | 2.0 | 6.0 | 0.00 | 0.00 | 0.00 | 68 | 1011.0 |
| 20260505053720 | 55 | 278 | 0.0 | 3.0 | 0.00 | 0.00 | 0.00 | 69 | 1011.0 |
| 20260505053216 | 55 | 24 | 1.0 | 4.0 | 0.00 | 0.00 | 0.00 | 68 | 1010.7 |
| 20260505052716 | 56 | 300 | 2.0 | 4.0 | 0.00 | 0.00 | 0.00 | 67 | 1010.7 |
| 20260505052216 | 55 | 21 | 1.0 | 3.0 | 0.00 | 0.00 | 0.00 | 67 | 1011.1 |
| 20260505051705 | 56 | 301 | 2.0 | 2.0 | 0.00 | 0.00 | 0.00 | 68 | 1011.1 |
| 20260505051204 | 57 | 106 | 0.0 | 1.0 | 0.00 | 0.00 | 0.00 | 69 | 1011.0 |
| 20260505050938 | 56 | 276 | 0.0 | 2.0 | 0.00 | 0.00 | 0.00 | 64 | 1011.0 |
| 20260505050200 | 57 | 348 | 0.0 | 3.0 | 0.00 | 0.00 | 0.00 | 58 | 1011.1 |
| 20260505041700 | 54 | 169 | 0.0 | 8.0 | 0.00 | 0.00 | 0.00 | 64 | 1011.4 |
| 20260505041200 | 53 | 288 | 1.0 | 8.0 | 0.00 | 0.00 | 0.00 | 62 | 1011.2 |
| 20260505040700 | 50 | 6 | 1.0 | 2.0 | 0.00 | 0.00 | 0.00 | 69 | 1011.4 |
| 20260505040228 | 51 | 103 | 1.0 | 3.0 | 0.00 | 0.00 | 0.00 | 72 | 1011.3 |
| 20260505040219 | 49 | 115 | 0.0 | 3.0 | 0.00 | 0.00 | 0.00 | 70 | 1011.4 |
| 20260505035159 | 52 | 287 | 1.0 | 3.0 | 0.00 | 0.00 | 0.00 | 64 | 1011.5 |
| 20260505034652 | 51 | 316 | 0.0 | 4.0 | 0.00 | 0.00 | 0.00 | 66 | 1011.5 |
| 20260505034152 | 51 | 337 | 1.0 | 4.0 | 0.00 | 0.00 | 0.00 | 65 | 1011.5 |
| 20260505033652 | 49 | 317 | 0.0 | 4.0 | 0.00 | 0.00 | 0.00 | 71 | 1011.4 |
| 20260505033152 | 48 | 119 | 1.0 | 4.0 | 0.00 | 0.00 | 0.00 | 76 | 1011.1 |
| 20260505032651 | 48 | 119 | 2.0 | 4.0 | 0.00 | 0.00 | 0.00 | 77 | 1011.4 |
| 20260505032153 | 49 | 104 | 2.0 | 3.0 | 0.00 | 0.00 | 0.00 | 73 | 1011.3 |
| 20260505031652 | 49 | 104 | 3.0 | 3.0 | 0.00 | 0.00 | 0.00 | 72 | 1011.5 |
| 20260505031152 | 49 | 104 | 0.0 | 2.0 | 0.00 | 0.00 | 0.00 | 72 | 1011.6 |
| 20260505030652 | 49 | 104 | 1.0 | 4.0 | 0.00 | 0.00 | 0.00 | 75 | 1011.7 |
| 20260505030152 | 49 | 104 | 1.0 | 4.0 | 0.00 | 0.00 | 0.00 | 73 | 1011.5 |
| 20260505025944 | 48 | 104 | 2.0 | 4.0 | 0.00 | 0.00 | 0.00 | 76 | 1011.7 |
| 20260505025152 | 47 | 103 | 2.0 | 4.0 | 0.00 | 0.00 | 0.00 | 75 | 1011.9 |
| 20260505024651 | 47 | 101 | 2.0 | 4.0 | 0.00 | 0.00 | 0.00 | 80 | 1012.0 |
| 20260505024151 | 45 | 101 | 2.0 | 3.0 | 0.00 | 0.00 | 0.00 | 82 | 1012.1 |
| 20260505023652 | 44 | 101 | 2.0 | 2.0 | 0.00 | 0.00 | 0.00 | 85 | 1012.0 |
| 20260505023150 | 44 | 101 | 1.0 | 1.0 | 0.00 | 0.00 | 0.00 | 85 | 1012.1 |
| 20260505022651 | 44 | 101 | 0.0 | 0.0 | 0.00 | 0.00 | 0.00 | 84 | 1012.2 |
| 20260505022149 | 44 | 101 | 0.0 | 1.0 | 0.00 | 0.00 | 0.00 | 83 | 1012.2 |
| 20260505021653 | 44 | 101 | 0.0 | 1.0 | 0.00 | 0.00 | 0.00 | 84 | 1012.3 |
| 20260505021425 | 45 | 101 | 1.0 | 1.0 | 0.00 | 0.00 | 0.00 | 84 | 1012.4 |
| 20260505020921 | 45 | 101 | 0.0 | 1.0 | 0.00 | 0.00 | 0.00 | 84 | 1012.3 |
| 20260505020142 | 45 | 101 | 0.0 | 2.0 | 0.00 | 0.00 | 0.00 | 84 | 1012.6 |
| 20260505015650 | 45 | 101 | 1.0 | 2.0 | 0.00 | 0.00 | 0.00 | 83 | 1012.6 |
| 20260505015142 | 45 | 101 | 0.0 | 0.0 | 0.00 | 0.00 | 0.00 | 83 | 1012.7 |
| 20260505014650 | 46 | 101 | 0.0 | 0.0 | 0.00 | 0.00 | 0.00 | 82 | 1012.6 |
| 20260505014142 | 46 | 101 | 0.0 | 0.0 | 0.00 | 0.00 | 0.00 | 81 | 1012.6 |
| 20260505013652 | 46 | 101 | 0.0 | 0.0 | 0.00 | 0.00 | 0.00 | 78 | 1012.8 |
| 20260505013143 | 46 | 101 | 0.0 | 0.0 | 0.00 | 0.00 | 0.00 | 80 | 1012.8 |
| 20260505012643 | 47 | 101 | 0.0 | 2.0 | 0.00 | 0.00 | 0.00 | 78 | 1012.7 |
| 20260505012504 | 47 | 101 | 0.0 | 4.0 | 0.00 | 0.00 | 0.00 | 79 | 1012.5 |
| 20260505011642 | 46 | 100 | 2.0 | 4.0 | 0.00 | 0.00 | 0.00 | 79 | 1012.8 |
| 20260505011142 | 47 | 91 | 4.0 | 4.0 | 0.00 | 0.00 | 0.00 | 78 | 1013.0 |
| 20260505010642 | 46 | 83 | 1.0 | 3.0 | 0.00 | 0.00 | 0.00 | 78 | 1012.9 |
| 20260505010142 | 46 | 83 | 0.0 | 3.0 | 0.00 | 0.00 | 0.00 | 79 | 1013.1 |
| 20260505005643 | 46 | 83 | 2.0 | 3.0 | 0.00 | 0.00 | 0.00 | 79 | 1013.2 |
| 20260505005142 | 46 | 83 | 1.0 | 3.0 | 0.00 | 0.00 | 0.00 | 79 | 1013.2 |
| 20260505004917 | 46 | 83 | 2.0 | 2.0 | 0.00 | 0.00 | 0.00 | 78 | 1013.2 |
| 20260505004145 | 46 | 83 | 0.0 | 3.0 | 0.00 | 0.00 | 0.00 | 78 | 1013.2 |
| 20260505003642 | 46 | 83 | 0.0 | 3.0 | 0.00 | 0.00 | 0.00 | 78 | 1013.0 |
| 20260505003143 | 47 | 83 | 2.0 | 3.0 | 0.00 | 0.00 | 0.00 | 77 | 1013.0 |
| 20260505002640 | 47 | 83 | 1.0 | 3.0 | 0.00 | 0.00 | 0.00 | 74 | 1013.1 |
| 20260505002141 | 49 | 83 | 3.0 | 3.0 | 0.00 | 0.00 | 0.00 | 72 | 1013.3 |
| 20260505001640 | 49 | 29 | 0.0 | 3.0 | 0.00 | 0.00 | 0.00 | 74 | 1013.3 |
| 20260505001140 | 50 | 28 | 1.0 | 3.0 | 0.00 | 0.00 | 0.00 | 68 | 1013.3 |
| 20260505000640 | 51 | 28 | 0.0 | 3.0 | 0.00 | 0.00 | 0.00 | 69 | 1013.2 |
| 20260505000141 | 50 | 28 | 2.0 | 4.0 | 0.00 | 0.00 | 0.00 | 69 | 1013.5 |
| 20260504235639 | 49 | 97 | 0.0 | 4.0 | 0.00 | 0.00 | 0.00 | 69 | 1013.4 |
| 20260504235140 | 49 | 94 | 0.0 | 2.0 | 0.00 | 0.00 | 0.00 | 70 | 1013.4 |
| 20260504234641 | 49 | 94 | 2.0 | 3.0 | 0.00 | 0.00 | 0.00 | 71 | 1013.5 |
| 20260504234141 | 48 | 94 | 2.0 | 4.0 | 0.00 | 0.00 | 0.00 | 73 | 1013.4 |
| 20260504233644 | 48 | 95 | 2.0 | 4.0 | 0.00 | 0.00 | 0.00 | 73 | 1013.5 |
| 20260504233145 | 47 | 97 | 4.0 | 4.0 | 0.00 | 0.00 | 0.00 | 75 | 1013.5 |
| 20260504232644 | 48 | 95 | 3.0 | 4.0 | 0.00 | 0.00 | 0.00 | 72 | 1013.7 |
| 20260504232146 | 48 | 102 | 2.0 | 4.0 | 0.00 | 0.00 | 0.00 | 74 | 1013.7 |
| 20260504231642 | 47 | 92 | 2.0 | 2.0 | 0.00 | 0.00 | 0.00 | 77 | 1013.6 |
| 20260504231147 | 47 | 92 | 0.0 | 3.0 | 0.00 | 0.00 | 0.00 | 77 | 1013.7 |
| 20260504230643 | 48 | 92 | 1.0 | 3.0 | 0.00 | 0.00 | 0.00 | 75 | 1013.7 |
| 20260504230146 | 47 | 92 | 1.0 | 3.0 | 0.00 | 0.00 | 0.00 | 74 | 1013.8 |
| 20260504225643 | 48 | 92 | 2.0 | 3.0 | 0.00 | 0.00 | 0.00 | 77 | 1014.0 |
| 20260504225146 | 48 | 92 | 1.0 | 2.0 | 0.00 | 0.00 | 0.00 | 72 | 1014.1 |
| 20260504224643 | 49 | 92 | 1.0 | 2.0 | 0.00 | 0.00 | 0.00 | 72 | 1014.2 |
| 20260504224145 | 49 | 92 | 0.0 | 2.0 | 0.00 | 0.00 | 0.00 | 71 | 1014.4 |
| 20260504223642 | 49 | 92 | 1.0 | 2.0 | 0.00 | 0.00 | 0.00 | 69 | 1014.3 |
| 20260504223144 | 49 | 92 | 2.0 | 3.0 | 0.00 | 0.00 | 0.00 | 70 | 1014.3 |
| 20260504222916 | 49 | 92 | 2.0 | 3.0 | 0.00 | 0.00 | 0.00 | 69 | 1014.4 |
| 20260504222146 | 50 | 92 | 1.0 | 2.0 | 0.00 | 0.00 | 0.00 | 71 | 1014.4 |
| 20260504221919 | 50 | 92 | 1.0 | 2.0 | 0.00 | 0.00 | 0.00 | 70 | 1014.3 |
| 20260504221146 | 50 | 92 | 1.0 | 2.0 | 0.00 | 0.00 | 0.00 | 70 | 1014.3 |
| 20260504220643 | 50 | 92 | 1.0 | 2.0 | 0.00 | 0.00 | 0.00 | 68 | 1014.2 |
| 20260504220145 | 51 | 92 | 1.0 | 3.0 | 0.00 | 0.00 | 0.00 | 67 | 1014.4 |
| 20260504215643 | 51 | 92 | 2.0 | 3.0 | 0.00 | 0.00 | 0.00 | 68 | 1014.4 |
| 20260504215145 | 50 | 92 | 3.0 | 3.0 | 0.00 | 0.00 | 0.00 | 67 | 1014.3 |
| 20260504214642 | 50 | 92 | 2.0 | 3.0 | 0.00 | 0.00 | 0.00 | 68 | 1014.4 |
| 20260504214144 | 51 | 92 | 2.0 | 3.0 | 0.00 | 0.00 | 0.00 | 68 | 1014.5 |
| 20260504213643 | 51 | 92 | 1.0 | 3.0 | 0.00 | 0.00 | 0.00 | 67 | 1014.5 |
| 20260504213144 | 51 | 92 | 2.0 | 3.0 | 0.00 | 0.00 | 0.00 | 65 | 1014.5 |
| 20260504212642 | 51 | 92 | 2.0 | 3.0 | 0.00 | 0.00 | 0.00 | 65 | 1014.5 |
| 20260504212145 | 51 | 92 | 2.0 | 3.0 | 0.00 | 0.00 | 0.00 | 66 | 1014.5 |
| 20260504211917 | 51 | 94 | 2.0 | 2.0 | 0.00 | 0.00 | 0.00 | 65 | 1014.7 |
| 20260504211145 | 51 | 94 | 2.0 | 3.0 | 0.00 | 0.00 | 0.00 | 68 | 1014.6 |
| 20260504210643 | 52 | 94 | 2.0 | 3.0 | 0.00 | 0.00 | 0.00 | 65 | 1014.5 |
| 20260504210145 | 52 | 94 | 2.0 | 3.0 | 0.00 | 0.00 | 0.00 | 66 | 1014.6 |
| 20260504205642 | 53 | 93 | 2.0 | 3.0 | 0.00 | 0.00 | 0.00 | 65 | 1014.5 |